Powrót do katalogu

THOR ABLESTAR DEB

AktywnyLEO
NORAD 13364·DEBRIS·🇺🇸 United States

Wystrzelony Jun 29, 1961 z Cape Canaveral Space Force Station

Loading…

Następne Przeloty (najbliższe 24 godziny)

TLE

ŚwieżeSource: Space-Track

Epoka: Sep 14, 2026, 00:07 UTC

1 13364U 61015KS  26257.00490694  .00000464  00000-0  52710-3 0  9996
2 13364  66.2590 109.3218 0092858 125.7168  21.9492 13.77509699424411

Śledź THOR ABLESTAR DEB w czasie rzeczywistym z AllMySat

Download on the App Store